User: anonymous   Login
Location: Unspecified
(0.0000°N, 0.0000°E)
Time: 00:50:45
(UTC+00:00)
Language:

STARLINK-31066 - Orbit

View from above orbital plane
View from above orbital plane
View from above satellite
View from above satellite

Ground track
Ground track

The orbit is defined by the following mean orbital elements,

1 58676U          26145.47149774 +.00000000 +00000-0 -20923-4 0 00007
2 58676  43.0026 157.4336 0001469 285.3590  74.7099 15.27574195    02
Epoch (UTC): 25 May 2026 11:18:57
Eccentricity: 0.0001469
inclination: 43.0026°
perigee height: 482 km
apogee height: 484 km
right ascension of ascending node: 157.4336°
argument of perigee: 285.3590°
revolutions per day: 15.27574195
mean anomaly at epoch: 74.7099°

The dashed part of the orbit path shows where the satellite is in the earth's shadow,  

DLR